Overview Statistics Trail Chart Weather Telemetry Raw packets
 

This is the latest recevied weather packets stored in our database for station/object KH6DH-13. If no packets are shown the sender has not sent any weather packets the latest 10 day(s).

<< 42 43 44 45 46 47 48 >>
Time Temp. Humidity Pressure Rain* Wind** Luminosity Snow
1788030536 25° C - - 1.78 mm 0.45 m/s, 7° - -
1788029935 25° C - - 1.78 mm 0.45 m/s, 294° - -
1788029334 24.44° C - - 1.78 mm 1.34 m/s, 15° - -
1788028733 24.44° C - - 1.78 mm 2.24 m/s, 101° - -
1788028132 24.44° C - - 0 mm 0 m/s - -
1788027529 25° C - - 0 mm 0.45 m/s, 66° - -
1788026925 25° C - - 0 mm 0.45 m/s, 24° - -
1788026322 25° C - - 0 mm 1.34 m/s, 94° - -
1788025717 24.44° C - - 0 mm 0 m/s - -
1788025113 24.44° C - - 0 mm 0.89 m/s, 28° - -
1788024509 24.44° C - - 1.02 mm 0.89 m/s, 13° - -
1788023906 24.44° C - - 1.02 mm 0 m/s - -
1788023301 23.89° C - - 1.02 mm 0.89 m/s, 90° - -
1788022697 23.89° C - - 1.02 mm 0 m/s - -
1788022095 23.89° C - - 1.02 mm 0.45 m/s, 359° - -
1788021494 23.89° C - - 1.02 mm 0.89 m/s, 55° - -
1788020893 23.89° C - - 0.51 mm 0 m/s - -
1788020292 23.89° C - - 0.51 mm 0.45 m/s, 18° - -
1788019691 24.44° C - - 0.51 mm 2.24 m/s, 63° - -
1788019090 23.89° C - - 0.51 mm 0.89 m/s, 51° - -
1788018489 23.89° C - - 0.51 mm 0.89 m/s, 111° - -
1788017888 23.89° C - - 0.51 mm 1.79 m/s, 89° - -
1788017287 24.44° C - - 0.25 mm 0.45 m/s, 32° - -
1788016686 24.44° C - - 0.25 mm 0.89 m/s, 90° - -
1788016085 24.44° C - - 0.25 mm 2.24 m/s, 25° - -

* Rain latest hour (hover to see other rain measurements)
** Current wind speed in m/s (hover to see current wind gust speed)